Tracking 26006 objects as of 17-Aug-2022
HD Live streaming from Space Station
objects crossing your sky now

RESURS O1 DEB

Track RESURS O1 DEB now!
10-day predictions


NORAD ID: 49236
Int'l Code: 1994-074FQ
Perigee: 589.3 km
Apogee: 598.4 km
Inclination: 97.9 °
Period: 96.4 minutes
Semi major axis: 6964 km
RCS: Unknown
Launch date: November 4, 1994
Source: Commonwealth of Independent States (former USSR) (CIS)
Launch site: TYURATAM MISSILE AND SPACE COMPLEX (TTMTR)

Note: This is SATELLITE DEBRIS
aabbcc
Your satellite tracking list
Your tracking list is empty




NASA's NSSDC Master Catalog

Two Line Element Set (TLE):
1 49236U 94074FQ  22228.11749162  .00027187  00000-0  25719-2 0  9996
2 49236  97.8868 279.3346 0006533 209.8407 150.2441 14.93602043 55888
Source of the keplerian elements: AFSPC